Central Park, NY

5:07 AM EDT on October 21, 2017 (GMT -0400)
Central Park

Weather History for KNYC - November, 2011

Change the Weather History Date:

Wednesday, November 23, 2011

  Actual Average Record
Temperature  
Mean Temperature 46 °F 45 °F  
Max Temperature 53 °F 51 °F 72 °F (1931)
Min Temperature 39 °F 40 °F 14 °F (1880)
Degree Days  
Heating Degree Days 19 20  
Month to date heating degree days 313 372  
Since 1 July heating degree days 590 685  
Cooling Degree Days 0 0  
Month to date cooling degree days 0 0  
Year to date cooling degree days 1331 1104  
Moisture  
Dew Point 45 °F    
Average Humidity 87    
Maximum Humidity 100    
Minimum Humidity 73    
Precipitation  
Precipitation 0.46 in 0.14 in 1.84 in (1923)
Month to date precipitation 2.58 3.05  
Year to date precipitation 68.34 44.97  
Snow  
Snow 0.00 in 0.00 in 4.40 in (1989)
Month to date snowfall 0.0 0.1  
Since 1 July snowfall 2.9 0.1  
Snow Depth 0.00 in    
Sea Level Pressure  
Sea Level Pressure 29.74 in    
Wind  
Wind Speed 7 mph (NNE)    
Max Wind Speed 18 mph    
Max Gust Speed 25 mph    
Visibility 6 miles    
Events Rain    
T = Trace of Precipitation, MM = Missing Value Source: NWS Daily Summary

Daily Weather History Graph

Daily Weather History Graph

Search for Another Location

Airport or City:

Trip Planner

Search our weather history database for the weather conditions in past years. The results will help you decide how hot, cold, wet, or windy it might be!

Date:

Astronomy

Nov. 23, 2011 Rise Set
Actual Time 6:51 AM EST 4:32 PM EST
Civil Twilight 6:21 AM EST 5:02 PM EST
Nautical Twilight 5:48 AM EST 5:35 PM EST
Astronomical Twilight 5:15 AM EST 6:08 PM EST
Moon 4:52 AM EST (11/23) 3:12 PM EST (11/23)
Length of Visible Light 10h 40m
Length of Day
9h 40m
Waning Crescent, 4% of the Moon is Illuminated
Nov 23
Waning Crescent
Nov 25
New
Dec 2
First Quarter
Dec 10
Full
Dec 17
Last Quarter

Hourly Weather History & Observations

Time (EST) Temp. Windchill Dew Point Humidity Pressure Visibility Wind Dir Wind Speed Gust Speed Precip Events Conditions
12:20 AM 46.4 °F 41.5 °F 46.4 °F 100% 29.97 in 2.5 mi East 10.4 mph 19.6 mph 0.07 in Rain Rain
12:29 AM 46.4 °F 41.1 °F 46.4 °F 100% 29.96 in 5.0 mi ESE 11.5 mph 18.4 mph 0.08 in   Overcast
12:51 AM 46.9 °F - 46.0 °F 97% 29.91 in 4.0 mi East 11.5 mph 18.4 mph 0.11 in Rain Light Rain
1:51 AM 48.0 °F - 46.9 °F 96% 29.83 in 3.0 mi East 11.5 mph 19.6 mph 0.04 in Rain Heavy Rain
1:58 AM 48.2 °F - 46.4 °F 93% 29.85 in 2.0 mi East 11.5 mph 19.6 mph 0.04 in Rain Light Rain
2:06 AM 48.2 °F - 46.4 °F 93% 29.84 in 7.0 mi East 10.4 mph 19.6 mph 0.05 in Rain Light Rain
2:51 AM 50.0 °F - 48.9 °F 96% 29.76 in 5.0 mi East 13.8 mph 19.6 mph 0.05 in   Overcast
3:05 AM 50.0 °F - 48.2 °F 94% 29.78 in 4.0 mi SW 8.1 mph - 0.00 in Rain Light Rain
3:37 AM 50.0 °F - 50.0 °F 100% 29.74 in 2.0 mi Calm Calm - 0.01 in   Overcast
3:51 AM 51.1 °F - 51.1 °F 100% 29.70 in 2.5 mi Variable 4.6 mph - 0.01 in   Overcast
4:30 AM 51.8 °F - 51.8 °F 100% 29.69 in 1.5 mi Calm Calm - 0.00 in Rain Light Rain
4:44 AM 51.8 °F - 51.8 °F 100% 29.68 in 0.8 mi ESE 4.6 mph - 0.00 in   Overcast
4:51 AM 52.0 °F - 52.0 °F 100% 29.65 in 1.0 mi Calm Calm - 0.01 in Rain Light Rain
4:58 AM 51.8 °F - 51.8 °F 100% 29.67 in 0.8 mi ESE 4.6 mph - 0.01 in Rain Light Rain
5:24 AM 53.6 °F - 53.6 °F 100% 29.68 in 0.8 mi West 10.4 mph - 0.10 in Rain Heavy Rain
5:31 AM 51.8 °F - 51.8 °F 100% 29.69 in 2.0 mi WNW 8.1 mph - 0.12 in Rain Light Rain
5:36 AM 51.8 °F - 50.0 °F 94% 29.69 in 4.0 mi WNW 5.8 mph - 0.12 in Rain Light Rain
5:51 AM 50.0 °F - 48.9 °F 96% 29.66 in 5.0 mi WNW 3.5 mph - 0.13 in Rain Light Rain
6:14 AM 50.0 °F - 50.0 °F 100% 29.67 in 7.0 mi Variable 3.5 mph - 0.01 in Rain Light Rain
6:41 AM 50.0 °F - 50.0 °F 100% 29.66 in 5.0 mi Calm Calm - 0.02 in Rain Light Rain
6:51 AM 50.0 °F - 50.0 °F 100% 29.64 in 5.0 mi Calm Calm - 0.02 in Rain Light Rain
7:11 AM 50.0 °F - 50.0 °F 100% 29.67 in 5.0 mi Calm Calm - 0.01 in   Overcast
7:39 AM 50.0 °F - 48.2 °F 94% 29.65 in 7.0 mi NE 5.8 mph - 0.01 in   Overcast
7:46 AM 48.9 °F - 48.9 °F 100% 29.64 in 7.0 mi North 3.5 mph - 0.01 in   Overcast
8:51 AM 48.0 °F - 46.9 °F 96% 29.64 in 8.0 mi NNW 5.8 mph - N/A   Overcast
9:51 AM 48.0 °F - 46.0 °F 93% 29.62 in 10.0 mi North 5.8 mph - 0.00 in   Overcast
10:51 AM 48.0 °F - 46.0 °F 93% 29.60 in 10.0 mi NE 8.1 mph - N/A   Overcast
11:51 AM 46.9 °F - 45.0 °F 93% 29.59 in 6.0 mi Variable 6.9 mph 18.4 mph 0.00 in Rain Light Rain
12:02 PM 46.4 °F 45.2 °F 44.6 °F 93% 29.60 in 1.8 mi Variable 3.5 mph - 0.00 in Rain Light Rain
12:29 PM 46.4 °F 44.3 °F 44.6 °F 93% 29.61 in 3.0 mi NNW 4.6 mph - 0.08 in Rain Light Rain
12:51 PM 46.0 °F 44.8 °F 45.0 °F 96% 29.59 in 8.0 mi Variable 3.5 mph - 0.08 in   Overcast
1:51 PM 46.9 °F - 45.0 °F 93% 29.62 in 10.0 mi Variable 5.8 mph - 0.01 in   Overcast
2:51 PM 46.9 °F - 44.1 °F 90% 29.66 in 10.0 mi Variable 5.8 mph - N/A   Overcast
3:51 PM 45.0 °F 39.3 °F 41.0 °F 86% 29.70 in 10.0 mi NNW 11.5 mph 25.3 mph N/A   Overcast
4:42 PM 44.6 °F 38.8 °F 39.2 °F 81% 29.78 in 10.0 mi NNW 11.5 mph 16.1 mph 0.00 in   Overcast
4:51 PM 44.1 °F 39.5 °F 39.0 °F 82% 29.76 in 10.0 mi North 8.1 mph - 0.00 in   Overcast
5:16 PM 44.6 °F 38.8 °F 37.4 °F 76% 29.80 in 10.0 mi North 11.5 mph 24.2 mph N/A   Overcast
5:51 PM 44.1 °F 39.5 °F 37.9 °F 79% 29.80 in 10.0 mi North 8.1 mph 18.4 mph 0.00 in   Overcast
6:51 PM 42.1 °F 36.1 °F 35.1 °F 76% 29.86 in 10.0 mi NNE 10.4 mph 19.6 mph N/A   Clear
7:51 PM 41.0 °F 34.3 °F 34.0 °F 76% 29.90 in 10.0 mi North 11.5 mph 21.9 mph N/A   Scattered Clouds
8:51 PM 41.0 °F 35.8 °F 34.0 °F 76% 29.94 in 10.0 mi North 8.1 mph 16.1 mph N/A   Clear
9:51 PM 39.9 °F 35.1 °F 34.0 °F 79% 29.95 in 10.0 mi Variable 6.9 mph - N/A   Clear
10:51 PM 39.9 °F 35.1 °F 34.0 °F 79% 29.97 in 10.0 mi Variable 6.9 mph - N/A   Clear
11:51 PM 39.0 °F 34.8 °F 34.0 °F 82% 30.00 in 10.0 mi Variable 5.8 mph - N/A   Clear